World > North America > United States > Michigan > Brighton Township

Hourly Brighton Township, MI Regional Weather

Feedback E-mail the Weather

Quick WX

Brighton Township, MI Weather Maps

°F °C°F °C
Brighton Township Weather Map
UTC Time: 8/19/2022, 11:06
Your Time:

Brighton Township, MI Regional Weather

Expires:202208191200;;307809
ASUS43 KDTX 191101
RWRMI 
MICHIGAN HOURLY REGIONAL WEATHER ROUNDUP
NATIONAL WEATHER SERVICE DETROIT/PONTIAC MI
700 AM EDT FRI AUG 19 2022

NOTE: "FAIR" INDICATES FEW OR NO CLOUDS BELOW 12,000 FEET WITH NO
SIGNIFICANT WEATHER AND/OR OBSTRUCTION TO VISIBILITY.


MIZ047>049-052>055-059>063-066>070-074>076-081>083-191200-
SOUTHEAST LOWER MICHIGAN
  
CITY           SKY/WX    TMP DP  RH WIND       PRES   REMARKS
ADRIAN         PTCLDY    56  55  97 CALM      30.04S FOG              
ALMA           CLEAR     56  55  96 CALM      30.00R FOG              
ANN ARBOR      FOG       49  49 100 W3        30.03R VSB<1/4          
BAD AXE        PTCLDY    57  57 100 CALM      30.00S                  
CARO           PTCLDY    55  53  92 CALM      30.00S FOG              
DETROIT CITY   CLEAR     64  59  83 CALM      30.03R                  
DETROIT        MOCLDY    60  58  92 S6        30.03R                  
FLINT          CLEAR     54  54 100 CALM      30.02R                  
GROSSE ILE     CLOUDY    63  63 100 W3        30.02S                  
HILLSDALE      CLEAR     55  53  94 CALM      30.03S                  
HOWELL         CLEAR     57  55  95 CALM      30.03R                  

CITY           SKY/WX    TMP DP  RH WIND       PRES   REMARKS
JACKSON        CLOUDY    58  54  86 CALM      30.03R                  
LAMBERTVILLE   CLEAR     56  56 100 CALM      30.03S FOG              
LANSING        CLEAR     61  55  81 S3        30.02R                  
LAPEER         PTCLDY    55  52  91 CALM      30.02R FOG              
MASON          PTCLDY    58  55  90 CALM      30.02R                  
MONROE         CLEAR     57  57  97 CALM      30.02S FOG              
MT. CLEMENS    CLEAR     58  58  99 CALM      30.00R                  
PONTIAC        PTCLDY    57  55  93 CALM      30.02R                  
PORT HOPE        N/A     64  59  83 SW5       29.98R                  
PORT HURON     FOG       55  54  94 CALM      30.02R VSB 1/2          
TRI CITIES     PTCLDY    61  57  87 S7        30.00S                  
MIDLAND        CLEAR     55  55 100 N3        29.99S FOG              
TROY           CLEAR     62  59  88 CALM      30.04S                  
SAGINAW HB     PTCLDY    58  55  89 CALM      30.00S                  
$$

SKY/WX - Weather  TMP - Temperature  DP - Dew Point  RH - Humidity
WIND - Wind Direction/Speed PRES - Barometric Pressure VSB - Visibility
WCI - Wind Chill Index E13G22 Wind - East Wind 13 mph/Gusts of 22 mph

Trending Headlines

Brighton Township Radar Loop



Brighton Township Quick Facts


National Two Day Weather Forecast


E-mail the Brighton Township Weather Forecast

Voice your opinion or tell us about page issues...